Weather History for Glasgow, United Kingdom

Change the Weather History Date:

Saturday, November 15, 2014

  Actual Average Record
Temperature  
Mean Temperature 44 °F -  
Max Temperature 48 °F 45 °F 59 °F (1997)
Min Temperature 39 °F 35 °F 23 °F (2010)
Degree Days  
Heating Degree Days 22    
Moisture  
Dew Point 42 °F    
Average Humidity 95    
Maximum Humidity 100    
Minimum Humidity 87    
Precipitation  
Precipitation 0.00 in - - ()
Sea Level Pressure  
Sea Level Pressure 29.54 in    
Wind  
Wind Speed 5 mph ()    
Max Wind Speed 10 mph    
Max Gust Speed 21 mph    
Visibility 4.7 miles    
Events Fog    
Averages and records for this station are not official NWS values.
T = Trace of Precipitation, MM = Missing Value Source: Averaged Metar Reports

Daily Weather History Graph

Daily Weather History Graph

Search for Another Location

Airport:

Trip Planner

Search our weather history database for the weather conditions in past years. The results will help you decide how hot, cold, wet, or windy it might be!

Date:

Astronomy

Nov. 15, 2014 Rise Set
Actual Time 7:53 AM GMT 4:10 PM GMT
Civil Twilight 7:11 AM GMT 4:52 PM GMT
Nautical Twilight 6:25 AM GMT 5:38 PM GMT
Astronomical Twilight 5:42 AM GMT 6:21 PM GMT
Moon No Moon Rise 1:35 PM GMT (11/15)
Length of Visible Light 9h 41m
Length of Day
8h 17m
Last Quarter, 42% of the Moon is Illuminated
Nov 15
Last Quarter
Nov 22
New
Nov 29
First Quarter
Dec 6
Full
Dec 14
Last Quarter

Hourly Weather History & Observations

Time (GMT) Temp. Windchill Dew Point Humidity Pressure Visibility Wind Dir Wind Speed Gust Speed Precip Events Conditions
12:20 AM 41.0 °F 36.4 °F 41.0 °F 100% 29.50 in 6.2 mi East 6.9 mph - N/A   Unknown
12:50 AM 42.8 °F 38.6 °F 41.0 °F 93% 29.50 in 6.2 mi East 6.9 mph - N/A   Unknown
1:20 AM 41.0 °F 36.4 °F 41.0 °F 100% 29.50 in 6.2 mi East 6.9 mph - N/A   Unknown
1:50 AM 39.2 °F 37.0 °F 37.4 °F 93% 29.50 in 4.3 mi Variable 3.5 mph - N/A   Unknown
2:20 AM 39.2 °F 37.0 °F 37.4 °F 93% 29.50 in 0.4 mi Variable 3.5 mph - N/A Fog Fog
2:50 AM 39.2 °F - 39.2 °F 100% 29.50 in 0.6 mi Variable 2.3 mph - N/A   Scattered Clouds
3:20 AM 39.2 °F - 37.4 °F 93% 29.50 in - Calm Calm - N/A   Overcast
3:50 AM 39.2 °F 37.0 °F 39.2 °F 100% 29.50 in 0.3 mi Variable 3.5 mph - N/A Fog Fog
4:20 AM 41.0 °F 39.0 °F 41.0 °F 100% 29.53 in 0.3 mi West 3.5 mph - N/A Fog Fog
4:50 AM 41.0 °F 38.0 °F 41.0 °F 100% 29.50 in 0.3 mi NE 4.6 mph - N/A Fog Fog
5:20 AM 41.0 °F 35.8 °F 41.0 °F 100% 29.53 in 0.8 mi East 8.1 mph - N/A   Mist
5:50 AM 42.8 °F 37.5 °F 42.8 °F 100% 29.53 in - East 9.2 mph - N/A   Overcast
6:20 AM 42.8 °F 38.0 °F 42.8 °F 100% 29.50 in - East 8.1 mph - N/A   Overcast
6:50 AM 44.6 °F 40.7 °F 44.6 °F 100% 29.50 in 4.3 mi East 6.9 mph - N/A   Overcast
7:20 AM 42.8 °F 38.0 °F 42.8 °F 100% 29.53 in 3.1 mi East 8.1 mph - N/A   Overcast
7:50 AM 42.8 °F 39.3 °F 42.8 °F 100% 29.53 in 1.6 mi SE 5.8 mph - N/A   Overcast
8:20 AM 41.0 °F 38.0 °F 41.0 °F 100% 29.53 in 1.5 mi SSE 4.6 mph - N/A   Overcast
8:50 AM 41.0 °F 39.0 °F 41.0 °F 100% 29.53 in - SSE 3.5 mph - N/A   Overcast
9:20 AM 42.8 °F 40.1 °F 42.8 °F 100% 29.53 in 2.8 mi South 4.6 mph - N/A   Overcast
9:50 AM 42.8 °F 40.1 °F 42.8 °F 100% 29.56 in 3.1 mi SSE 4.6 mph - N/A   Overcast
10:20 AM 42.8 °F 41.1 °F 42.8 °F 100% 29.56 in 3.7 mi Variable 3.5 mph - N/A   Overcast
10:50 AM 44.6 °F 42.2 °F 42.8 °F 93% 29.56 in 3.7 mi SE 4.6 mph - N/A   Mostly Cloudy
11:20 AM 44.6 °F 42.2 °F 44.6 °F 100% 29.56 in 5.0 mi East 4.6 mph - N/A   Mostly Cloudy
11:50 AM 46.4 °F 45.2 °F 44.6 °F 93% 29.56 in 5.6 mi Variable 3.5 mph - N/A   Mostly Cloudy
12:20 PM 46.4 °F 43.5 °F 44.6 °F 93% 29.56 in 6.2 mi SE 5.8 mph - N/A   Overcast
12:50 PM 46.4 °F 42.4 °F 44.6 °F 93% 29.56 in 6.2 mi East 8.1 mph - N/A   Overcast
1:20 PM 46.4 °F 42.4 °F 44.6 °F 93% 29.53 in 6.2 mi East 8.1 mph 20.7 mph N/A   Scattered Clouds
1:50 PM 48.2 °F - 44.6 °F 87% 29.53 in 6.2 mi ENE 4.6 mph - N/A   Scattered Clouds
2:20 PM 48.2 °F - 44.6 °F 87% 29.53 in 6.2 mi Variable 3.5 mph - N/A   Mostly Cloudy
2:50 PM 48.2 °F - 44.6 °F 87% 29.53 in 6.2 mi East 6.9 mph - N/A   Partly Cloudy
3:20 PM 46.4 °F 41.5 °F 44.6 °F 93% 29.53 in 6.2 mi East 10.4 mph - N/A   Partly Cloudy
3:50 PM 46.4 °F 43.5 °F 42.8 °F 87% 29.53 in 6.2 mi East 5.8 mph - N/A   Unknown
4:20 PM 46.4 °F 44.3 °F 42.8 °F 87% 29.53 in 6.2 mi East 4.6 mph - N/A   Mostly Cloudy
4:50 PM 44.6 °F 43.1 °F 42.8 °F 93% 29.53 in 6.2 mi Variable 3.5 mph - N/A   Overcast
5:20 PM 46.4 °F 43.5 °F 44.6 °F 93% 29.56 in 6.2 mi North 5.8 mph - N/A   Mostly Cloudy
5:50 PM 44.6 °F 40.7 °F 42.8 °F 93% 29.56 in 6.2 mi ENE 6.9 mph - N/A   Mostly Cloudy
6:20 PM 44.6 °F 40.7 °F 42.8 °F 93% 29.56 in 6.2 mi ENE 6.9 mph - N/A   Overcast
6:50 PM 46.4 °F 41.9 °F 44.6 °F 93% 29.56 in 6.2 mi ENE 9.2 mph - N/A   Overcast
7:20 PM 46.4 °F 42.4 °F 42.8 °F 87% 29.56 in 6.2 mi ENE 8.1 mph - N/A   Overcast
7:50 PM 46.4 °F 43.5 °F 42.8 °F 87% 29.56 in 6.2 mi ENE 5.8 mph - N/A   Overcast
8:20 PM 44.6 °F 42.2 °F 42.8 °F 93% 29.56 in 6.2 mi NE 4.6 mph - N/A   Overcast
8:50 PM 44.6 °F - 42.8 °F 93% 29.56 in 6.2 mi Variable 2.3 mph - N/A   Mostly Cloudy
9:20 PM 44.6 °F - 42.8 °F 93% 29.56 in 5.6 mi NNE 2.3 mph - N/A   Overcast
9:50 PM 44.6 °F - 42.8 °F 93% 29.56 in 6.2 mi Calm Calm - N/A   Overcast
10:20 PM 44.6 °F - 42.8 °F 93% 29.56 in 5.6 mi West 1.2 mph - N/A   Overcast
10:50 PM 44.6 °F 43.1 °F 42.8 °F 93% 29.56 in 6.2 mi West 3.5 mph - N/A   Overcast
11:20 PM 44.6 °F - 42.8 °F 93% 29.56 in 5.6 mi Variable 1.2 mph - N/A   Overcast
11:50 PM 44.6 °F - 42.8 °F 93% 29.56 in 5.6 mi NW 2.3 mph - N/A   Overcast